QPF
0.15 0.16 0.16 0.14 0.14 0.15 0.17 0.20 0.26 0.26 0.22 0.19 0.17 0.15 0.13 0.11 0.08 0.06 0.04 0.03 0.02 0.01 0.01 0.00 0.00 0.00 0.00 0.00 0.00 0.00 0.00 0.00 0.00 0.01 0.01 0.01 0.01 0.02
0.10 0.11 0.11 0.11 0.11 0.13 0.15 0.19 0.24 0.27 0.26 0.21 0.17 0.15 0.12 0.09 0.07 0.05 0.03 0.02 0.01 0.01 0.00 0.00 0.00 0.00 0.00 0.00 0.00 0.00 0.00 0.00 0.01 0.01 0.01 0.02 0.02 0.02
0.07 0.07 0.08 0.08 0.09 0.10 0.13 0.15 0.18 0.19 0.19 0.16 0.13 0.11 0.09 0.07 0.06 0.04 0.02 0.01 0.01 0.00 0.00 0.00 0.00 0.00 0.00 0.00 0.00 0.00 0.00 0.00 0.01 0.01 0.01 0.01 0.02 0.02
0.05 0.06 0.06 0.07 0.09 0.11 0.13 0.14 0.14 0.14 0.14 0.13 0.11 0.09 0.07 0.05 0.03 0.02 0.01 0.00 0.00 0.00 0.00 0.00 0.00 0.00 0.00 0.00 0.00 0.00 0.00 0.00 0.00 0.01 0.01 0.01 0.01 0.01
0.06 0.07 0.08 0.09 0.10 0.11 0.12 0.12 0.11 0.10 0.09 0.08 0.07 0.05 0.03 0.02 0.01 0.00 0.00 0.00 0.00 0.00 0.00 0.00 0.00 0.00 0.00 0.00 0.00 0.00 0.00 0.00 0.00 0.00 0.00 0.00 0.01 0.01
0.08 0.10 0.12 0.13 0.12 0.11 0.10 0.09 0.07 0.06 0.05 0.04 0.03 0.02 0.01 0.00 0.00 0.00 0.00 0.00 0.00 0.00 0.00 0.00 0.00 0.00 0.00 0.00 0.00 0.00 0.00 0.00 0.00 0.00 0.00 0.00 0.00 0.01
0.11 0.11 0.11 0.10 0.09 0.08 0.07 0.06 0.04 0.03 0.03 0.02 0.01 0.01 0.00 0.00 0.00 0.00 0.00 0.00 0.00 0.00 0.00 0.00 0.00 0.00 0.00 0.00 0.00 0.00 0.00 0.00 0.00 0.00 0.00 0.01 0.01 0.01
0.09 0.08 0.08 0.08 0.07 0.06 0.05 0.03 0.03 0.02 0.02 0.01 0.01 0.00 0.00 0.00 0.00 0.00 0.00 0.00 0.00 0.00 0.00 0.00 0.00 0.00 0.00 0.00 0.00 0.00 0.00 0.00 0.00 0.00 0.00 0.00 0.01 0.01
0.07 0.05 0.04 0.04 0.03 0.02 0.02 0.01 0.01 0.01 0.00 0.00 0.00 0.00 0.00 0.00 0.00 0.00 0.00 0.00 0.00 0.00 0.00 0.00 0.00 0.00 0.00 0.00 0.00 0.00 0.00 0.00 0.00 0.00 0.00 0.00 0.01 0.01
0.04 0.04 0.03 0.02 0.01 0.01 0.01 0.00 0.00 0.00 0.00 0.00 0.00 0.00 0.00 0.00 0.00 0.00 0.00 0.00 0.00 0.00 0.00 0.00 0.00 0.00 0.00 0.00 0.00 0.00 0.00 0.00 0.00 0.00 0.00 0.00 0.00 0.01
0.02 0.02 0.01 0.01 0.01 0.01 0.00 0.00 0.00 0.00 0.00 0.00 0.00 0.00 0.00 0.00 0.00 0.00 0.00 0.00 0.00 0.00 0.00 0.00 0.00 0.00 0.00 0.00 0.00 0.00 0.00 0.00 0.00 0.00 0.00 0.00 0.00 0.00
0.01 0.00 0.00 0.00 0.00 0.00 0.00 0.00 0.00 0.00 0.00 0.00 0.00 0.00 0.00 0.00 0.00 0.00 0.00 0.00 0.00 0.00 0.00 0.00 0.00 0.00 0.00 0.00 0.00 0.00 0.00 0.00 0.00 0.00 0.00 0.00 0.00 0.00
0.00 0.00 0.00 0.00 0.00 0.00 0.00 0.00 0.00 0.00 0.00 0.00 0.00 0.00 0.00 0.00 0.00 0.00 0.00 0.00 0.01 0.01 0.00 0.01 0.01 0.01 0.01 0.01 0.00 0.00 0.00 0.00 0.00 0.00 0.00 0.00 0.00 0.00
0.00 0.00 0.00 0.00 0.00 0.00 0.00 0.00 0.00 0.00 0.00 0.00 0.00 0.00 0.00 0.00 0.00 0.00 0.00 0.00 0.00 0.00 0.00 0.01 0.03 0.02 0.02 0.02 0.00 0.00 0.00 0.00 0.00 0.00 0.00 0.00 0.00 0.00
0.00 0.00 0.00 0.00 0.00 0.00 0.00 0.00 0.00 0.00 0.00 0.00 0.00 0.00 0.00 0.00 0.00 0.00 0.00 0.00 0.00 0.00 0.00 0.00 0.01 0.02 0.03 0.03 0.01 0.00 0.00 0.00 0.00 0.00 0.00 0.00 0.00 0.00
0.00 0.00 0.00 0.00 0.00 0.00 0.00 0.00 0.00 0.00 0.00 0.00 0.00 0.00 0.00 0.00 0.00 0.00 0.00 0.00 0.00 0.00 0.00 0.00 0.01 0.02 0.03 0.02 0.02 0.01 0.00 0.00 0.00 0.00 0.00 0.00 0.00 0.00
0.00 0.00 0.00 0.00 0.00 0.00 0.00 0.00 0.00 0.00 0.00 0.00 0.00 0.00 0.00 0.00 0.00 0.00 0.00 0.01 0.01 0.01 0.00 0.00 0.00 0.01 0.02 0.02 0.02 0.01 0.00 0.00 0.00 0.00 0.01 0.01 0.00 0.00
0.00 0.00 0.00 0.00 0.00 0.00 0.00 0.00 0.00 0.00 0.00 0.00 0.00 0.00 0.00 0.01 0.00 0.00 0.01 0.01 0.01 0.01 0.00 0.00 0.01 0.01 0.01 0.01 0.01 0.00 0.00 0.00 0.00 0.00 0.01 0.02 0.01 0.00
0.00 0.00 0.00 0.00 0.00 0.00 0.00 0.00 0.00 0.00 0.00 0.00 0.00 0.01 0.01 0.01 0.01 0.01 0.01 0.01 0.01 0.01 0.01 0.00 0.01 0.03 0.04 0.01 0.00 0.00 0.00 0.01 0.01 0.00 0.00 0.01 0.01 0.00
0.00 0.00 0.00 0.00 0.00 0.00 0.00 0.00 0.00 0.00 0.00 0.00 0.01 0.01 0.01 0.01 0.01 0.01 0.01 0.01 0.01 0.01 0.01 0.00 0.01 0.03 0.06 0.04 0.02 0.00 0.00 0.01 0.02 0.02 0.01 0.00 0.00 0.00
0.00 0.00 0.00 0.00 0.00 0.00 0.00 0.00 0.00 0.00 0.00 0.01 0.01 0.01 0.01 0.02 0.01 0.01 0.01 0.01 0.01 0.01 0.01 0.00 0.00 0.01 0.02 0.04 0.04 0.01 0.00 0.00 0.01 0.04 0.05 0.05 0.03 0.01
0.00 0.00 0.00 0.00 0.00 0.00 0.00 0.00 0.01 0.01 0.01 0.01 0.01 0.01 0.01 0.02 0.02 0.01 0.01 0.01 0.01 0.01 0.01 0.01 0.00 0.01 0.02 0.04 0.03 0.01 0.00 0.00 0.00 0.00 0.02 0.05 0.09 0.07
0.00 0.00 0.00 0.00 0.00 0.00 0.00 0.01 0.01 0.01 0.01 0.01 0.01 0.01 0.01 0.02 0.01 0.01 0.01 0.01 0.02 0.01 0.01 0.01 0.01 0.01 0.01 0.02 0.02 0.01 0.00 0.00 0.00 0.00 0.00 0.00 0.01 0.02
MSLP
1013.69 1014.04 1014.47 1014.99 1015.59 1016.24 1016.93 1017.64 1018.37 1019.08 1019.78 1020.45 1021.07 1021.61 1022.08 1022.46 1022.73 1022.91 1022.99 1023.01 1022.96 1022.88 1022.79 1022.70 1022.63 1022.57 1022.53 1022.50 1022.47 1022.43 1022.37 1022.29 1022.19 1022.06 1021.90 1021.72 1021.53 1021.32
1014.09 1014.42 1014.82 1015.31 1015.86 1016.46 1017.11 1017.79 1018.48 1019.18 1019.86 1020.51 1021.11 1021.65 1022.09 1022.44 1022.69 1022.83 1022.88 1022.85 1022.76 1022.65 1022.52 1022.40 1022.30 1022.22 1022.17 1022.13 1022.09 1022.06 1022.00 1021.93 1021.83 1021.71 1021.56 1021.38 1021.18 1020.96
1014.85 1015.16 1015.52 1015.94 1016.42 1016.94 1017.50 1018.08 1018.69 1019.31 1019.92 1020.52 1021.07 1021.57 1021.98 1022.30 1022.52 1022.63 1022.65 1022.60 1022.48 1022.34 1022.18 1022.03 1021.90 1021.81 1021.73 1021.68 1021.65 1021.61 1021.57 1021.51 1021.43 1021.32 1021.18 1021.02 1020.82 1020.61
1015.86 1016.14 1016.45 1016.80 1017.19 1017.59 1018.03 1018.49 1018.98 1019.48 1020.00 1020.50 1020.98 1021.42 1021.79 1022.08 1022.27 1022.36 1022.37 1022.30 1022.16 1022.00 1021.81 1021.64 1021.49 1021.36 1021.27 1021.20 1021.15 1021.11 1021.08 1021.03 1020.96 1020.87 1020.76 1020.61 1020.44 1020.24
1016.98 1017.23 1017.50 1017.77 1018.06 1018.35 1018.65 1018.98 1019.33 1019.70 1020.09 1020.49 1020.88 1021.25 1021.57 1021.82 1021.99 1022.08 1022.08 1022.00 1021.86 1021.67 1021.47 1021.27 1021.09 1020.93 1020.80 1020.70 1020.62 1020.57 1020.53 1020.48 1020.42 1020.35 1020.26 1020.14 1019.99 1019.82
1018.07 1018.30 1018.53 1018.74 1018.93 1019.11 1019.30 1019.49 1019.70 1019.93 1020.20 1020.49 1020.79 1021.09 1021.36 1021.58 1021.74 1021.82 1021.82 1021.75 1021.60 1021.41 1021.19 1020.96 1020.74 1020.54 1020.36 1020.22 1020.10 1020.01 1019.94 1019.88 1019.81 1019.75 1019.66 1019.56 1019.44 1019.29
1019.06 1019.26 1019.44 1019.59 1019.72 1019.81 1019.89 1019.96 1020.06 1020.18 1020.33 1020.52 1020.74 1020.97 1021.19 1021.39 1021.54 1021.62 1021.63 1021.57 1021.43 1021.24 1021.00 1020.74 1020.48 1020.22 1019.99 1019.78 1019.61 1019.46 1019.34 1019.24 1019.16 1019.07 1018.99 1018.89 1018.78 1018.64
1019.87 1020.04 1020.18 1020.29 1020.35 1020.38 1020.38 1020.38 1020.38 1020.40 1020.46 1020.57 1020.72 1020.90 1021.08 1021.26 1021.40 1021.49 1021.51 1021.46 1021.34 1021.14 1020.90 1020.61 1020.31 1020.00 1019.71 1019.43 1019.19 1018.97 1018.78 1018.62 1018.49 1018.37 1018.25 1018.14 1018.02 1017.89
1020.48 1020.61 1020.72 1020.79 1020.82 1020.80 1020.75 1020.69 1020.63 1020.59 1020.59 1020.63 1020.72 1020.86 1021.01 1021.17 1021.31 1021.41 1021.45 1021.41 1021.30 1021.11 1020.86 1020.56 1020.23 1019.88 1019.52 1019.18 1018.86 1018.57 1018.30 1018.07 1017.87 1017.69 1017.53 1017.38 1017.24 1017.09
1020.90 1020.99 1021.06 1021.10 1021.10 1021.06 1020.99 1020.90 1020.81 1020.73 1020.69 1020.69 1020.74 1020.84 1020.97 1021.11 1021.25 1021.35 1021.40 1021.38 1021.28 1021.11 1020.86 1020.56 1020.21 1019.82 1019.43 1019.03 1018.65 1018.28 1017.95 1017.64 1017.36 1017.10 1016.88 1016.67 1016.48 1016.31
1021.17 1021.21 1021.25 1021.26 1021.25 1021.20 1021.13 1021.03 1020.92 1020.83 1020.76 1020.73 1020.76 1020.82 1020.93 1021.06 1021.18 1021.28 1021.34 1021.33 1021.25 1021.09 1020.86 1020.56 1020.20 1019.81 1019.39 1018.96 1018.54 1018.12 1017.72 1017.34 1016.98 1016.65 1016.35 1016.07 1015.82 1015.60
1021.33 1021.33 1021.33 1021.33 1021.31 1021.26 1021.19 1021.09 1020.99 1020.89 1020.82 1020.77 1020.77 1020.81 1020.89 1020.99 1021.10 1021.18 1021.23 1021.23 1021.16 1021.01 1020.79 1020.51 1020.17 1019.78 1019.36 1018.93 1018.48 1018.03 1017.58 1017.15 1016.73 1016.32 1015.94 1015.60 1015.27 1014.98
1021.43 1021.39 1021.37 1021.35 1021.32 1021.28 1021.22 1021.13 1021.04 1020.95 1020.86 1020.81 1020.79 1020.80 1020.85 1020.91 1020.99 1021.05 1021.08 1021.06 1020.98 1020.84 1020.63 1020.37 1020.04 1019.68 1019.28 1018.85 1018.40 1017.94 1017.48 1017.01 1016.54 1016.07 1015.63 1015.20 1014.80 1014.44
1021.50 1021.43 1021.38 1021.36 1021.33 1021.30 1021.25 1021.18 1021.09 1021.00 1020.92 1020.85 1020.81 1020.79 1020.80 1020.82 1020.85 1020.87 1020.86 1020.82 1020.72 1020.56 1020.35 1020.09 1019.79 1019.44 1019.06 1018.66 1018.23 1017.78 1017.31 1016.82 1016.32 1015.81 1015.30 1014.81 1014.34 1013.91
1021.56 1021.48 1021.42 1021.39 1021.36 1021.34 1021.29 1021.23 1021.16 1021.07 1020.98 1020.90 1020.83 1020.77 1020.74 1020.71 1020.69 1020.65 1020.59 1020.49 1020.35 1020.16 1019.93 1019.66 1019.36 1019.02 1018.67 1018.28 1017.88 1017.44 1016.98 1016.49 1015.97 1015.43 1014.88 1014.34 1013.80 1013.30
1021.63 1021.54 1021.48 1021.45 1021.42 1021.40 1021.36 1021.30 1021.22 1021.13 1021.03 1020.93 1020.83 1020.74 1020.66 1020.58 1020.49 1020.38 1020.25 1020.09 1019.89 1019.65 1019.38 1019.08 1018.76 1018.42 1018.06 1017.69 1017.30 1016.88 1016.43 1015.94 1015.42 1014.86 1014.28 1013.68 1013.10 1012.55
1021.70 1021.62 1021.56 1021.53 1021.50 1021.47 1021.42 1021.36 1021.27 1021.16 1021.04 1020.92 1020.79 1020.66 1020.53 1020.39 1020.24 1020.07 1019.86 1019.63 1019.35 1019.05 1018.71 1018.36 1018.00 1017.63 1017.26 1016.88 1016.48 1016.07 1015.62 1015.14 1014.61 1014.04 1013.44 1012.82 1012.20 1011.61
1021.77 1021.69 1021.64 1021.60 1021.56 1021.51 1021.45 1021.36 1021.26 1021.13 1020.99 1020.84 1020.68 1020.51 1020.34 1020.15 1019.94 1019.70 1019.43 1019.11 1018.76 1018.38 1017.97 1017.56 1017.14 1016.72 1016.30 1015.90 1015.48 1015.06 1014.60 1014.11 1013.57 1013.00 1012.39 1011.75 1011.12 1010.50
1021.80 1021.73 1021.68 1021.63 1021.57 1021.50 1021.41 1021.30 1021.16 1021.01 1020.84 1020.66 1020.47 1020.27 1020.06 1019.83 1019.58 1019.28 1018.95 1018.57 1018.14 1017.69 1017.21 1016.72 1016.23 1015.75 1015.29 1014.83 1014.38 1013.92 1013.45 1012.94 1012.39 1011.81 1011.19 1010.55 1009.91 1009.29
1021.79 1021.72 1021.66 1021.58 1021.50 1021.40 1021.27 1021.12 1020.95 1020.77 1020.57 1020.37 1020.15 1019.93 1019.70 1019.44 1019.15 1018.81 1018.43 1018.00 1017.52 1017.00 1016.46 1015.91 1015.35 1014.81 1014.28 1013.76 1013.26 1012.76 1012.25 1011.72 1011.16 1010.56 1009.94 1009.30 1008.67 1008.05
1021.69 1021.62 1021.54 1021.45 1021.33 1021.19 1021.03 1020.84 1020.64 1020.42 1020.19 1019.96 1019.73 1019.49 1019.24 1018.96 1018.65 1018.29 1017.88 1017.41 1016.89 1016.33 1015.74 1015.13 1014.51 1013.91 1013.32 1012.75 1012.19 1011.64 1011.09 1010.53 1009.95 1009.34 1008.72 1008.09 1007.46 1006.86
1021.50 1021.42 1021.32 1021.20 1021.05 1020.88 1020.67 1020.45 1020.21 1019.96 1019.71 1019.46 1019.21 1018.95 1018.69 1018.39 1018.07 1017.69 1017.27 1016.78 1016.24 1015.65 1015.03 1014.38 1013.72 1013.07 1012.43 1011.80 1011.20 1010.60 1010.01 1009.41 1008.81 1008.19 1007.57 1006.95 1006.33 1005.75
1021.21 1021.11 1020.99 1020.84 1020.66 1020.46 1020.22 1019.96 1019.69 1019.42 1019.14 1018.87 1018.60 1018.33 1018.04 1017.74 1017.40 1017.02 1016.58 1016.08 1015.53 1014.93 1014.28 1013.61 1012.93 1012.24 1011.56 1010.90 1010.25 1009.61 1008.98 1008.35 1007.73 1007.11 1006.49 1005.88 1005.29 1004.73
Thickness
5559 5554 5549 5545 5542 5540 5537 5536 5532 5525 5519 5514 5511 5508 5505 5502 5498 5495 5491 5487 5485 5484 5482 5480 5478 5477 5475 5474 5474 5473 5472 5472 5471 5471 5471 5471 5472 5473
5539 5535 5530 5525 5522 5521 5520 5519 5519 5518 5512 5504 5499 5495 5491 5489 5484 5480 5477 5474 5472 5471 5469 5467 5466 5464 5462 5461 5460 5458 5457 5457 5456 5456 5456 5456 5456 5456
5518 5513 5509 5506 5504 5502 5501 5502 5501 5500 5496 5489 5486 5482 5477 5475 5471 5467 5465 5462 5460 5458 5456 5455 5453 5451 5449 5448 5446 5444 5443 5441 5440 5440 5439 5438 5438 5438
5499 5495 5491 5489 5487 5485 5484 5484 5483 5483 5481 5476 5472 5468 5464 5461 5458 5455 5452 5450 5448 5445 5443 5442 5440 5438 5436 5434 5432 5430 5428 5426 5425 5423 5421 5420 5419 5417
5482 5478 5475 5474 5471 5470 5469 5468 5467 5467 5466 5464 5459 5456 5452 5449 5446 5443 5440 5437 5434 5432 5430 5428 5426 5424 5422 5419 5417 5416 5414 5412 5410 5407 5404 5402 5400 5398
5466 5463 5461 5460 5458 5457 5455 5454 5454 5453 5452 5450 5447 5444 5440 5437 5434 5430 5426 5423 5420 5418 5416 5414 5411 5409 5407 5405 5403 5401 5399 5397 5394 5391 5388 5385 5382 5379
5453 5451 5449 5448 5447 5446 5445 5443 5443 5441 5439 5437 5435 5431 5427 5424 5420 5417 5412 5407 5405 5404 5402 5398 5396 5394 5391 5389 5387 5386 5385 5383 5380 5377 5373 5370 5367 5364
5443 5441 5440 5439 5438 5437 5436 5434 5433 5431 5428 5425 5422 5418 5414 5411 5407 5402 5396 5391 5388 5389 5386 5383 5380 5379 5377 5374 5373 5372 5371 5369 5366 5363 5360 5357 5353 5350
5436 5433 5432 5430 5428 5427 5426 5425 5423 5421 5419 5414 5409 5405 5402 5398 5393 5388 5382 5377 5374 5373 5371 5370 5368 5366 5364 5362 5360 5359 5358 5356 5354 5351 5349 5346 5343 5340
5429 5426 5424 5423 5422 5420 5418 5415 5413 5411 5408 5405 5400 5395 5391 5386 5381 5376 5370 5366 5362 5360 5357 5356 5357 5355 5353 5350 5348 5347 5345 5344 5343 5341 5339 5337 5334 5332
5424 5421 5418 5415 5415 5413 5409 5406 5403 5401 5398 5395 5390 5385 5381 5376 5371 5364 5357 5351 5348 5346 5344 5342 5343 5342 5341 5340 5337 5335 5334 5332 5331 5330 5329 5328 5326 5325
5417 5415 5412 5409 5407 5404 5400 5396 5392 5389 5386 5381 5377 5373 5368 5363 5358 5352 5344 5336 5331 5331 5330 5328 5326 5325 5329 5329 5326 5324 5322 5320 5320 5319 5318 5318 5317 5316
5410 5407 5404 5401 5398 5395 5392 5386 5383 5379 5374 5368 5363 5359 5354 5349 5343 5337 5331 5324 5318 5317 5317 5314 5312 5310 5309 5316 5318 5316 5314 5313 5311 5310 5309 5309 5308 5308
5403 5399 5396 5393 5390 5387 5382 5378 5373 5368 5361 5355 5350 5344 5339 5333 5328 5322 5317 5312 5308 5306 5305 5302 5301 5300 5299 5301 5305 5309 5307 5305 5304 5305 5304 5303 5302 5301
5396 5393 5390 5386 5382 5377 5372 5368 5362 5354 5348 5342 5336 5330 5325 5320 5314 5310 5306 5303 5300 5298 5297 5295 5293 5292 5291 5292 5296 5299 5300 5302 5300 5300 5298 5297 5297 5297
5388 5385 5382 5378 5374 5369 5363 5357 5350 5343 5337 5329 5323 5318 5313 5307 5303 5299 5297 5295 5293 5293 5291 5290 5288 5287 5287 5287 5288 5292 5292 5292 5296 5294 5294 5295 5295 5295
5382 5377 5373 5368 5363 5357 5351 5345 5339 5332 5325 5319 5312 5307 5302 5297 5294 5290 5288 5286 5285 5286 5286 5285 5285 5284 5284 5283 5286 5289 5290 5290 5290 5291 5292 5295 5295 5294
5374 5367 5362 5357 5351 5346 5339 5333 5327 5320 5314 5308 5302 5296 5292 5288 5285 5282 5280 5279 5279 5280 5281 5281 5281 5282 5284 5285 5284 5286 5287 5288 5289 5288 5288 5291 5297 5297
5364 5358 5352 5347 5341 5335 5328 5321 5315 5309 5303 5297 5292 5287 5283 5280 5277 5274 5273 5273 5274 5275 5276 5275 5275 5276 5280 5286 5287 5285 5284 5286 5287 5287 5287 5289 5294 5298
5355 5349 5343 5337 5331 5325 5318 5311 5305 5300 5294 5288 5284 5280 5276 5273 5270 5268 5268 5268 5270 5271 5273 5272 5271 5272 5273 5279 5284 5285 5281 5282 5284 5286 5289 5290 5293 5297
5347 5341 5335 5329 5322 5315 5308 5302 5296 5291 5285 5280 5276 5273 5269 5266 5265 5264 5264 5265 5266 5267 5269 5271 5271 5271 5271 5274 5280 5287 5285 5282 5282 5283 5286 5289 5293 5297
5339 5333 5327 5321 5314 5307 5300 5294 5288 5283 5278 5274 5270 5267 5264 5261 5260 5260 5260 5260 5262 5263 5266 5269 5270 5269 5269 5271 5277 5283 5287 5287 5285 5283 5284 5285 5286 5293
5332 5326 5320 5313 5306 5299 5293 5287 5281 5276 5272 5268 5265 5261 5259 5257 5256 5256 5256 5257 5258 5261 5263 5266 5269 5269 5270 5271 5274 5279 5283 5286 5287 5288 5288 5287 5288 5292